www.pogodaiklimat.ru

Погода и климат >> Архив погоды >> Катар >> Abu Samra


ПОГОДА в Abu Samra

  • Прогноз погоды в Abu Samra
  • Монитор погоды в Abu Samra
  • Климат города

АРХИВ ПОГОДЫ в Abu Samra

Время (UTC), дата Ветер
(напр.,м/с)
 
Видим.   Явления Облачность Т
(С)
Тd
(С)
f
(%)
Тe
(С)
Тes
(С)
Комфортность P
(гПа)
Po
(гПа)
Тmin
(С)
Tmax
(С)
R
(мм)
R24
(мм)
S
(см)
06 12.12 СЗ 11 12 км н/о +21.5 +16.4 73 +25 +25 комфорт 1022.1 1021.5 +19.6
09 12.12 СЗ 15 16 км н/о +22.9 +15.3 62 +27 +27 душно 1020.2 1019.6
12 12.12 СЗ 14 13 км н/о +22.9 +16.7 68 +28 +28 душно 1019.3 1018.7
15 12.12 С 9 20 км н/о +22.2 +15.0 64 +26 +26 душно 1020.1 1019.5
18 12.12 С 5 20 км н/о +20.9 +14.7 68 +24 +24 комфорт 1021.2 1020.6 +23.5
21 12.12 СЗ 6 20 км н/о +20.2 +15.6 75 +23 +23 комфорт 1020.5 1019.9
00 13.12 З 7 19 км н/о +19.3 +14.9 76 +20 +20 1020.3 1019.7
03 13.12 СЗ 9 20 км н/о +19.0 +13.7 71 +19 +19 1021.1 1020.5
06 13.12 СЗ 9 20 км н/о +20.6 +13.3 63 +22 +22 комфорт 1023.1 1022.5 +18.3
09 13.12 СЗ 9 20 км н/о +22.6 +16.0 66 +27 +27 душно 1021.6 1021.0
12 13.12 СЗ 9 20 км н/о +22.8 +17.0 70 +28 +28 душно 1019.9 1019.3
15 13.12 СЗ 11 20 км н/о +22.4 +18.1 77 +28 +28 душно 1021.3 1020.7
18 13.12 С 8 20 км н/о +21.9 +16.0 69 +26 +26 душно 1021.9 1021.3 +23.1
21 13.12 С 4 20 км н/о +19.6 +16.3 81 +22 +22 комфорт 1021.4 1020.8
00 14.12 ЮЗ 4 8000 м н/о +17.2 +14.5 84 +17 +17 1021.3 1020.7
03 14.12 СЗ 9 13 км н/о +19.6 +16.9 84 +21 +21 комфорт 1022.2 1021.6
06 14.12 СЗ 5 13 км н/о +20.8 +16.8 78 +24 +24 комфорт 1024.1 1023.5 +16.5
09 14.12 СЗ 10 19 км н/о +23.0 +17.3 70 +28 +28 душно 1021.9 1021.3
12 14.12 СЗ 14 20 км н/о +23.1 +16.8 68 +28 +28 душно 1021.0 1020.4
15 14.12 СЗ 13 15 км н/о +22.3 +17.5 74 +27 +27 душно 1022.0 1021.4
18 14.12 С 11 20 км н/о +22.1 +14.4 62 +25 +25 комфорт 1022.8 1022.2 +23.6
21 14.12 С 8 20 км н/о +21.3 +16.1 72 +25 +25 комфорт 1021.9 1021.3
00 15.12 З 6 20 км н/о +20.4 +16.7 79 +23 +23 комфорт 1021.5 1020.9
03 15.12 З 10 10 км н/о +19.2 +15.9 81 +20 +20 1022.2 1021.6
06 15.12 СЗ 11 11 км н/о +21.1 +17.0 77 +25 +25 комфорт 1023.7 1023.1 +19.1
09 15.12 СЗ 14 7000 м н/о +23.5 +19.2 77 +28 +28 душно 1021.8 1021.2
12 15.12 СЗ 15 6000 м н/о +23.5 +19.3 77 +28 +28 душно 1020.7 1020.1
15 15.12 С 16 16 км н/о +23.1 +15.9 64 +28 +28 душно 1022.3 1021.7
18 15.12 С 13 11 км н/о +21.9 +17.4 76 +26 +26 душно 1023.7 1023.1 +23.9
21 15.12 С 12 13 км н/о +21.4 +17.0 76 +25 +25 комфорт 1022.9 1022.3
00 16.12 З 16 15 км н/о +18.5 +14.6 78 +17 +17 1022.8 1022.2
03 16.12 СЗ 15 15 км н/о +18.5 +13.9 75 +18 +18 1024.1 1023.5
06 16.12 СЗ 13 13 км н/о +20.8 +15.7 73 +23 +23 комфорт 1025.6 1025.0 +18.1
09 16.12 СЗ 13 12 км н/о +23.1 +17.8 72 +29 +29 очень
душно
1023.5 1022.9
12 16.12 СЗ 14 14 км н/о +23.1 +15.8 63 +27 +27 душно 1021.8 1021.2
15 16.12 СЗ 16 17 км н/о +22.2 +15.7 67 +26 +26 душно 1023.2 1022.6
18 16.12 С 12 20 км н/о +20.5 +15.1 71 +22 +22 комфорт 1024.4 1023.8 +23.4
21 16.12 С 12 20 км н/о +20.2 +14.3 69 +22 +22 комфорт 1023.8 1023.2
00 17.12 СЗ 5 19 км н/о +18.4 +14.8 80 +19 +19 1023.0 1022.4
03 17.12 СЗ 8 14 км н/о +18.3 +15.3 83 +18 +18 1022.8 1022.2
06 17.12 СЗ 3 20 км н/о +20.1 +14.9 72 +23 +23 комфорт 1024.2 1023.6 +17.7
09 17.12 СЗ 5 20 км н/о +22.2 +12.8 55 +25 +25 комфорт 1022.0 1021.4
12 17.12 С 7 20 км н/о +23.4 +14.2 56 +27 +27 душно 1019.9 1019.3
15 17.12 С 3 20 км н/о +21.1 +15.4 70 +24 +24 комфорт 1020.5 1019.9
18 17.12 СВ 1 20 км н/о +19.8 +11.0 57 +22 +22 комфорт 1021.8 1021.2 +23.8
21 17.12 Ю 2 17 км н/о +17.1 +12.2 73 +17 +17 1021.8 1021.2
00 18.12 ЮВ 1 16 км н/о +13.6 +8.7 72 +14 +14 1020.8 1020.2
03 18.12 В 1 20 км н/о +12.6 +8.5 76 +13 +13 1022.0 1021.4
06 18.12 ЮВ 3 20 км н/о +20.6 +9.5 49 +22 +22 комфорт 1023.9 1023.3 +12.3
09 18.12 С 4 20 км н/о +22.9 +13.5 55 +26 +26 жарко 1022.0 1021.4
12 18.12 С 3 20 км н/о +25.9 +9.1 35 +26 +26 жарко 1019.9 1019.3
15 18.12 СВ 4 20 км н/о +21.0 +12.3 58 +24 +24 комфорт 1020.6 1020.0
18 18.12 ЮВ 4 20 км н/о +18.9 +10.1 57 +20 +20 1021.6 1021.0 +25.9
21 18.12 ЮВ 3 20 км н/о +16.4 +9.2 62 +16 +16 1020.8 1020.2
00 19.12 ЮЗ 3 20 км н/о +15.0 +8.7 66 +14 +14 1020.6 1020.0

 

Местоположение метеостанции Abu Samra (Катар): широта 24.75 долгота 50.82 высота над уровнем моря 8 м.

В архиве по умолчанию представлена погода в Abu Samra за последнюю неделю. Архивные данные за месяц целиком и за предыдущие месяцы, начиная с января 2011 года, Вы можете получить, выбрав интересующий диапазон дат из раскрывающегося списка и нажав кнопку "Ввод!".


*Определитесь, кто Вы:
робот инопланетянин человек

Внимание! Время в таблицах - всемирное. Для получения местного времени необходимо прибавить поправку, которая в Abu Samra равна 4 ч.

Смотрите также архив погоды в соседних городах и на ближайших метеорологических станциях:

Погода в Dukhan (Катар) (73 км)
Погода в Doha (Катар) (94 км)
Погода в Hamad Int Airport (Катар) (98 км)
Погода в Al Ahsa (Саудовская Аравия) (148 км)
Погода в Bahrain (Бахрейн) (170 км)
Погода в Dhahran (Саудовская Аравия) (181 км)
Погода в King Fahd Int Airport (Саудовская Аравия) (214 км)
Погода в Bandar Deyr (Иран) (360 км)
Погода в Abu Dhabi Bateen Airport (ОАЭ) (370 км)
Погода в Kish Island (Иран) (372 км)

Пояснения к столбцам:

Ветер - указаны скорость ветра в м/с - средняя за 10 мин, порывы в срок и между сроками (в фигурных скобках) и направление, откуда дует ветер: С - северный, СВ - северо-восточный, В - восточный, ЮВ - юго-восточный, Ю - южный, ЮЗ - юго-западный, З - западный, СЗ - северо-западный.
Видимость - горизонтальная дальность видимости в метрах или километрах. При видимости от 1 до 10 км при отсутствии осадков обычно наблюдается дымка, при ухудшении видимости до 1 км и менее - туман. В сухую погоду видимость может ухудшаться дымом, пылью или мглою.
Явления - указаны атмосферные явления, наблюдавшиеся в срок или в последний час перед сроком; фигурными скобками обозначены явления, наблюдавшиеся между сроками (за 1-3 часа до срока); квадратными скобками обозначены град или гололедные отложения с указанием их диаметра в мм.
Облачность - указаны через наклонную черту общая и нижняя облачность в баллах и высота нижней границы облаков в метрах; квадратными скобками обозначены формы облаков: Ci - перистые, Cs - перисто-слоистые, Cc - перисто-кучевые, Ac - высококучевые, As - высокослоистые, Sc - слоисто-кучевые, Ns - слоисто-дождевые, Cu - кучевые, Cb - кучево-дождевые. Подробнее классификацию облаков см. в Атласе облаков (PDF).
T - Температура воздуха - температура, измеренная на высоте 2 м над землей.
Td - Температура точки росы - температура, при понижении до которой содержащийся в воздухе водяной пар достигнет насыщения.
f - Относительная влажность воздуха - влажноcть воздуха, измеренная на высоте 2 м над землей.
Te - Эффективная температура - температура, которую ощущает одетый по сезону человек в тени. Характеристика душности погоды. При расчете учитывается влияние влажности воздуха и скорости ветра на теплоощущения человека.
Tes - Эффективная температура на солнце - температура, которую ощущает человек, с поправкой на солнечный нагрев. Характеристика знойности погоды. Зависит от высоты солнца над горизонтом, облачности и скорости ветра. Ночью, в пасмурную погоду, а также при ветре 12 м/с и более поправка равна нулю.
P - Атмосферное давление - приведенное к уровню моря атмосферное давление.
Po - Атмосферное давление - измеренное на уровне метеостанции атмосферное давление.
Tmin - Минимальная температура - минимум температуры воздуха на высоте 2 м над землей.
Tmax - Максимальная температура - максимум температуры воздуха на высоте 2 м над землей.
R - Количество осадков - Количество выпавших осадков за период времени, мм. При наведении курсора мыши на число - период времени, за который выпало указанное количество осадков.
R24 - Количество осадков - Количество выпавших осадков за 24 часа, мм.
S - Снежный покров - Высота снежного покрова, см. При наведении курсора мыши на число - состояние снежного покрова и степень покрытия местности в баллах.